Wind_Speed
13 13 13 14 14 14 14 14 14 15 15 15 14 14 15 15 15 15 15 15 14 14 14 13 13 13 13 13 13 12 12 12 12 12 12 13 12 12 11 11 11 11 11 11 11 10 10 10 11 12 13 13 14 15 15 16 16 16 16 16 16 16 17 17 16 16 16 16 16 16 16 16 17 18 19 19 20 20 19 18 18 19 20 20 19
14 13 13 14 14 14 14 14 15 15 15 15 15 15 15 15 16 16 16 15 15 15 15 14 14 14 14 14 14 14 14 14 13 13 13 13 13 13 12 12 12 12 12 12 12 12 11 12 13 14 14 14 15 15 15 16 15 15 15 15 15 16 16 16 16 15 15 15 15 15 16 16 18 18 18 19 19 18 17 17 17 18 19 19 19
15 15 15 14 14 15 15 15 15 15 15 14 14 15 15 15 16 16 16 16 15 15 15 15 15 15 15 14 14 14 14 14 14 13 13 14 14 14 13 13 13 14 14 14 13 13 12 13 13 14 14 14 14 15 15 15 15 15 14 14 14 15 15 15 15 15 14 13 13 14 15 16 17 18 18 18 18 17 17 18 18 19 19 20 20
16 16 16 16 16 16 16 16 16 15 14 14 14 14 15 15 15 16 16 16 15 15 16 16 16 16 15 14 14 14 14 14 14 14 14 14 14 14 14 14 15 15 15 15 14 14 14 13 14 15 15 14 14 15 15 15 15 14 14 14 13 13 14 14 14 14 13 12 12 12 13 15 16 17 18 18 18 18 18 19 20 20 20 21 22
16 17 17 17 17 17 16 16 16 15 15 14 14 15 15 15 15 15 16 16 16 16 16 16 16 16 15 15 14 14 14 15 15 14 14 15 15 15 15 15 15 15 15 15 15 15 14 14 14 15 15 14 14 14 14 14 14 13 13 13 14 14 14 15 15 15 14 13 12 12 13 15 16 17 18 18 18 18 19 20 21 21 22 22 23
16 17 18 18 18 17 17 17 16 15 15 15 15 15 15 15 15 15 15 16 16 16 16 16 16 15 15 15 15 15 15 15 15 15 15 15 15 15 15 15 15 15 15 15 15 15 15 15 15 15 15 15 15 15 14 14 13 13 13 14 15 15 15 15 15 15 15 15 15 14 14 15 17 18 19 19 19 20 20 21 21 22 23 23 24
17 17 18 19 19 18 17 17 16 16 16 16 16 16 16 16 16 16 16 16 16 16 16 16 16 16 15 15 15 15 15 15 15 15 15 15 15 15 15 15 15 15 16 15 15 15 15 15 15 16 16 15 15 15 15 15 14 14 15 15 16 16 16 16 16 16 15 15 15 15 16 17 18 19 19 19 20 22 23 23 22 22 22 23 24
17 17 17 18 18 18 18 18 17 17 17 17 17 17 17 17 17 16 17 17 16 16 16 16 16 16 16 16 15 16 15 15 15 15 15 15 15 15 16 16 16 15 16 16 16 16 16 16 16 16 17 17 16 16 16 17 16 16 16 17 17 17 17 17 17 17 17 17 17 18 19 19 19 20 20 20 21 23 24 25 24 24 23 23 24
18 19 18 18 17 17 18 18 19 18 18 17 17 17 17 17 17 17 17 17 17 17 17 17 17 17 16 16 16 16 16 15 15 15 16 16 16 16 16 16 16 16 16 16 16 17 17 17 17 17 18 18 18 18 18 19 19 19 19 19 19 19 19 19 19 19 19 20 20 21 21 21 21 21 21 22 23 24 25 25 25 25 25 24 25
19 20 19 18 18 18 18 19 19 20 20 19 19 18 18 19 18 18 18 18 18 18 18 18 18 17 17 17 17 16 16 16 15 16 16 17 17 17 18 18 17 17 17 17 17 18 18 19 19 19 19 19 19 19 20 20 21 21 21 21 21 21 21 21 21 22 22 22 22 22 22 22 22 23 24 24 25 26 26 26 25 26 26 25 25
20 20 20 20 20 20 19 19 20 20 21 21 21 21 21 21 21 20 20 19 19 19 19 19 18 18 18 18 18 18 17 17 17 18 18 19 19 19 19 19 19 19 19 18 19 19 20 20 21 21 21 21 21 21 22 22 23 22 23 23 22 22 22 22 23 23 24 24 24 24 24 24 24 25 26 27 27 27 27 27 27 26 26 26 26
21 21 21 22 22 22 21 21 20 20 21 21 22 22 22 23 23 23 22 21 21 20 20 20 19 19 19 20 19 19 19 19 19 19 20 20 20 21 21 21 21 21 21 20 21 20 21 22 22 22 22 22 22 23 24 24 24 24 24 24 24 24 24 24 24 24 25 25 25 25 25 25 26 27 28 28 27 27 27 27 27 27 27 27 27
21 22 23 23 23 23 22 22 22 22 22 22 22 23 23 24 24 24 24 23 23 22 22 22 21 21 21 21 21 21 21 21 21 21 21 22 22 23 23 23 24 24 23 24 24 22 20 22 23 23 23 22 23 24 24 25 25 25 25 25 26 26 26 26 26 26 26 27 27 27 27 27 27 27 27 27 27 27 27 26 27 27 27 26 27
23 23 23 24 25 25 24 24 23 23 24 24 24 24 23 23 23 24 24 24 24 24 23 23 23 22 22 22 22 23 22 22 22 22 23 23 24 24 24 24 24 25 25 26 26 24 23 23 23 23 23 23 23 24 25 26 26 26 27 27 27 27 28 27 27 27 28 28 28 29 28 28 27 27 27 27 27 28 28 28 27 26 25 24 24
26 25 24 25 26 26 26 27 27 26 25 25 25 25 25 24 24 23 23 24 24 24 24 24 24 24 23 23 23 23 23 22 23 23 24 24 25 26 26 25 25 25 26 27 27 27 26 25 25 25 25 25 25 26 26 27 28 28 28 29 29 29 29 29 29 29 29 29 30 30 29 28 28 27 27 27 28 29 29 28 27 25 23 21 21
29 28 28 27 26 26 27 28 28 28 28 26 24 25 27 27 26 25 24 23 24 24 25 25 25 25 24 24 24 24 23 23 23 24 24 25 26 27 28 28 28 28 28 28 28 29 29 28 27 27 28 27 27 27 28 28 29 29 30 30 31 31 31 31 30 30 30 30 30 30 30 30 29 29 29 29 29 29 28 27 25 23 21 19 19
31 31 32 31 30 30 29 28 27 29 30 28 24 23 26 28 29 28 26 24 24 24 25 26 26 26 26 25 24 25 24 24 25 25 25 26 26 28 29 30 30 30 30 30 30 30 30 30 30 30 30 29 28 28 28 29 29 30 30 31 32 33 33 32 31 31 31 31 31 31 32 33 32 32 31 30 29 28 27 25 23 20 19 18 19
34 35 35 34 33 34 33 31 28 28 29 29 25 23 23 26 28 28 27 26 25 25 26 27 27 27 27 27 26 26 26 26 26 26 27 27 27 29 30 30 31 31 31 31 31 31 31 30 30 31 31 30 29 30 30 30 31 31 31 32 33 34 35 34 33 34 33 32 33 34 34 35 36 36 34 31 29 27 24 22 20 18 19 19 20
36 37 37 35 34 36 37 32 28 28 29 28 26 24 23 25 26 28 29 29 27 26 27 28 27 27 27 27 27 28 28 28 28 28 29 29 30 30 31 31 32 32 32 32 32 32 32 32 31 32 32 32 31 32 32 32 32 32 33 34 35 36 38 37 36 36 36 36 36 36 38 40 39 37 34 29 26 24 20 19 19 19 20 21 21
35 35 36 36 34 34 35 32 30 30 29 26 25 26 26 26 27 29 30 30 29 27 26 26 27 28 27 27 27 28 29 30 30 30 30 31 32 32 33 33 33 33 33 34 34 34 34 34 34 34 34 34 34 33 34 34 35 35 36 36 37 38 40 40 39 39 38 38 38 39 41 38 30 27 27 25 22 20 18 19 20 21 22 23 22
29 30 32 32 32 31 31 30 29 29 26 23 24 26 26 26 28 30 31 32 32 29 26 26 29 29 29 30 31 30 31 33 33 32 33 34 35 35 36 36 35 35 35 35 36 36 36 36 36 36 36 36 36 36 36 36 38 39 40 40 39 40 41 40 40 40 39 38 39 41 41 34 25 23 23 21 18 18 18 20 21 22 23 23 23
18 20 22 23 22 23 23 19 17 17 19 21 24 24 24 24 25 27 28 30 31 30 28 28 31 32 32 33 33 32 33 35 35 35 36 37 38 38 38 38 39 38 38 37 36 35 36 36 36 37 37 38 39 39 40 40 41 43 44 43 41 41 42 41 42 43 41 38 37 38 35 29 24 22 20 17 17 18 20 21 22 22 23 23 23
9 11 14 15 16 18 17 14 11 13 16 19 20 20 21 23 24 25 27 29 30 30 29 29 30 32 33 34 34 33 33 34 36 37 38 39 40 41 40 42 42 40 37 36 36 36 36 37 37 38 39 40 42 43 43 42 43 45 48 47 44 42 42 42 42 42 36 28 25 27 25 21 19 18 16 17 18 20 21 22 23 23 23 23 23
4 5 9 13 16 19 21 19 17 16 16 14 13 13 15 17 19 22 24 27 27 28 27 27 28 29 29 30 32 31 31 33 37 38 39 39 39 39 40 42 42 40 37 36 36 36 37 38 40 41 42 44 45 47 48 47 47 48 48 47 43 38 36 35 35 30 22 17 19 23 20 17 16 16 17 18 20 21 23 23 23 23 24 24 24
5 4 3 4 6 10 14 15 14 13 12 9 9 10 12 13 16 18 19 21 23 24 25 25 25 25 24 26 29 30 32 35 36 34 32 32 29 26 27 30 32 33 34 34 35 37 37 38 39 38 38 37 36 38 41 42 38 34 31 29 28 27 27 28 28 23 17 16 19 20 17 15 17 18 18 20 21 23 23 23 23 24 24 24 24
11 10 8 7 6 6 7 8 9 9 8 9 11 15 17 19 20 20 20 22 24 24 24 24 24 24 24 25 28 31 33 34 32 28 25 24 21 18 18 20 22 25 28 30 33 35 35 33 31 28 27 27 24 23 25 26 23 20 21 21 20 18 18 20 21 19 16 15 17 17 16 17 18 19 20 22 23 23 23 24 24 24 24 24 24
13 14 14 14 15 15 15 15 16 15 15 17 19 22 23 23 24 23 23 24 24 23 23 23 22 23 24 26 28 30 29 27 25 21 19 18 17 16 16 17 18 20 22 23 24 25 25 24 24 22 22 21 19 19 21 22 20 19 20 20 18 16 16 18 18 17 16 15 16 17 17 19 20 21 22 23 23 23 24 24 24 24 24 24 24
10 12 12 14 16 17 17 17 18 19 19 21 22 22 21 20 21 21 22 22 23 23 23 23 22 22 23 24 25 25 21 19 19 18 17 16 16 16 15 15 15 16 16 17 18 19 20 20 20 19 19 17 15 16 18 19 18 18 19 19 16 16 17 17 17 17 16 16 17 18 19 20 21 22 23 23 24 24 24 25 25 24 24 24 24
8 9 10 11 12 13 14 14 15 16 17 17 18 18 17 17 17 18 19 20 20 20 21 21 21 21 21 20 20 19 16 15 15 16 16 16 15 15 15 15 14 14 15 15 15 15 15 15 14 14 14 13 11 12 13 15 16 18 19 18 16 16 16 16 16 17 17 18 19 19 20 21 22 23 24 24 25 25 25 25 25 25 24 24 24
6 6 7 8 9 10 11 12 12 13 13 13 14 15 15 15 16 16 17 17 17 17 18 18 18 18 17 16 15 14 13 12 12 13 14 15 15 15 15 15 15 14 14 14 14 13 13 13 12 11 10 10 9 9 11 13 14 16 17 17 17 18 18 18 18 18 19 19 20 20 21 22 23 23 24 25 25 25 26 26 26 26 26 25 25
5 5 5 6 6 7 7 8 9 9 10 10 11 11 12 12 13 13 13 13 13 13 14 14 14 14 13 12 11 10 10 10 11 11 12 12 12 13 13 14 14 14 14 15 16 15 13 12 12 11 10 10 11 11 11 11 12 13 14 15 16 17 18 18 19 20 20 21 21 22 22 23 23 24 25 25 26 26 26 26 27 27 27 27 27
4 5 5 5 6 6 6 7 7 8 8 9 9 9 10 10 10 11 11 11 11 11 11 11 11 11 10 10 9 9 9 9 10 10 10 10 10 10 11 11 12 12 13 14 15 15 14 14 14 13 13 13 13 12 12 12 12 13 14 15 16 17 18 18 19 20 21 22 22 23 24 24 25 25 25 26 26 27 27 27 28 28 28 28 29
4 4 5 6 6 7 7 7 8 8 8 8 9 9 9 9 10 10 10 10 10 10 10 10 9 9 9 9 8 8 7 8 8 8 8 8 8 8 8 9 9 10 10 11 12 13 13 14 14 13 13 14 14 14 15 15 16 17 18 19 20 21 21 21 22 23 23 24 24 24 25 25 25 26 26 26 27 27 27 28 28 29 29 29 30
5 5 6 6 7 8 8 9 9 9 9 9 9 9 8 8 9 9 10 10 10 10 10 9 9 9 9 9 8 8 8 8 8 9 9 9 9 9 9 9 9 10 10 10 10 10 11 12 12 12 12 13 13 14 15 16 17 18 19 20 21 22 23 24 24 25 25 25 25 24 25 25 25 26 26 26 27 27 28 29 29 29 30 30 30
7 8 8 9 9 9 10 10 10 11 11 11 10 10 9 9 9 9 9 10 10 10 10 10 10 10 10 10 11 11 11 12 12 12 13 13 13 13 12 12 11 12 12 12 12 12 12 12 12 12 12 13 13 14 14 15 16 16 17 18 19 20 20 21 21 22 23 25 25 25 26 26 26 26 27 27 28 28 29 30 30 30 31 31 31
9 10 11 12 12 13 13 13 13 13 13 13 13 13 13 13 12 12 12 12 12 13 13 13 13 14 14 14 15 15 16 16 16 17 17 17 16 16 16 15 14 14 13 14 14 14 14 14 14 14 14 14 14 15 16 16 17 17 18 19 20 20 21 21 22 22 23 25 27 28 29 29 30 30 30 31 31 31 31 32 32 32 33 33 33
11 12 12 13 14 15 15 16 16 17 17 17 17 17 17 17 17 17 17 17 18 18 17 17 17 17 17 18 18 19 19 19 20 20 20 19 19 19 18 17 17 17 16 16 16 16 16 16 17 17 17 17 18 19 19 20 21 22 22 23 23 24 24 25 25 26 27 28 29 29 30 30 31 31 32 32 32 33 33 34 34 34 34 35 35
13 13 14 14 15 15 16 17 18 18 19 19 19 20 20 20 21 21 21 21 21 20 20 20 19 19 18 18 19 19 19 20 21 21 21 21 20 20 19 19 19 19 19 19 18 18 18 18 18 19 19 20 20 21 22 23 24 24 25 26 26 27 27 28 29 29 30 30 31 31 31 32 32 32 33 33 33 33 34 34 34 34 35 35 35
15 15 15 15 15 16 17 17 18 18 18 19 19 19 20 20 20 21 21 21 21 21 20 20 20 19 19 18 18 19 19 20 21 21 21 22 22 21 21 21 21 21 21 20 20 20 20 21 21 21 22 22 23 23 24 24 25 26 26 27 28 29 29 30 30 31 31 32 32 32 32 32 33 33 33 34 34 34 34 34 34 34 34 35 35
16 16 16 16 17 17 17 18 19 19 19 20 20 20 20 20 20 21 21 21 21 21 21 21 21 20 20 19 19 19 20 21 21 22 23 23 23 24 23 23 23 23 23 23 23 24 24 24 25 25 26 26 27 27 27 28 28 29 29 30 30 31 31 32 32 32 33 33 33 33 33 34 33 34 34 34 34 34 34 34 34 34 34 34 35
17 17 18 18 18 18 19 19 20 20 20 21 21 22 22 22 22 22 22 22 22 22 22 23 23 23 22 22 21 21 22 23 23 24 25 25 25 25 25 25 25 26 26 26 27 27 28 28 29 29 30 30 31 31 32 32 32 33 33 33 33 33 33 34 34 34 34 34 34 34 34 34 34 34 34 34 34 34 34 34 34 34 34 34 35
19 19 19 19 19 19 20 20 21 21 21 21 21 21 21 22 22 22 22 23 23 24 24 25 25 25 25 25 24 23 24 24 25 25 26 26 27 27 27 27 27 28 28 28 29 29 30 30 31 31 32 33 34 34 35 35 35 35 35 34 34 34 34 34 34 34 34 34 34 34 34 34 34 34 34 34 34 34 34 34 35 35 35 35 35
20 20 21 21 21 21 21 21 21 21 21 21 22 22 22 22 22 23 23 23 23 24 25 25 26 26 26 26 26 25 25 25 25 26 26 27 28 28 28 28 29 29 30 30 31 31 31 32 33 33 34 35 35 36 36 36 35 34 33 32 32 32 32 32 32 32 32 33 33 33 33 33 33 33 33 33 33 33 34 34 34 34 35 35 35
21 22 22 22 22 22 22 22 22 22 22 22 22 22 23 23 24 24 24 24 25 25 25 26 26 26 26 26 27 27 27 28 28 28 29 29 29 29 29 29 30 30 31 31 31 32 32 32 33 34 34 35 34 34 33 32 31 30 30 30 30 31 31 31 31 31 31 31 31 31 31 31 31 31 31 32 32 32 32 33 33 34 34 35 35
22 23 23 23 22 22 22 22 23 23 23 23 24 24 24 25 25 26 26 26 26 27 27 27 27 27 27 26 27 27 28 28 29 30 30 31 30 29 29 29 29 29 30 30 29 30 30 31 32 33 34 34 33 32 30 30 30 29 29 30 31 31 32 32 32 32 31 31 31 31 31 31 31 31 31 31 31 32 32 33 33 33 34 34 35
23 23 23 23 23 23 23 23 23 23 23 23 24 24 25 25 26 27 27 27 27 28 28 28 28 28 28 27 27 27 28 28 28 28 28 28 28 28 28 28 28 28 28 29 29 30 30 31 32 32 32 32 32 32 32 32 32 32 32 32 32 32 32 32 31 32 32 32 32 32 31 31 32 32 32 32 32 32 33 33 33 33 33 34 34
23 23 22 22 22 22 22 22 22 22 22 22 22 23 23 24 24 25 26 27 27 28 28 28 28 28 28 28 28 28 29 29 28 28 28 28 28 28 28 28 28 29 29 30 31 31 31 31 31 31 31 31 31 32 33 34 34 35 35 34 34 33 33 32 31 31 32 32 32 31 31 31 32 32 32 32 32 32 33 33 33 33 33 33 34
23 22 22 21 21 21 21 21 21 21 21 21 21 21 22 23 23 24 24 24 25 26 26 26 27 27 27 27 28 29 29 29 29 29 29 29 29 29 29 30 30 30 30 31 31 31 32 32 33 33 33 33 33 34 34 35 35 36 36 36 36 36 35 34 33 32 32 31 31 31 31 31 31 32 32 32 32 32 32 32 32 32 32 33 33
22 22 21 21 20 20 20 19 20 20 19 20 20 20 21 22 22 23 24 24 25 25 26 26 26 27 27 27 29 30 30 29 29 29 28 29 29 30 31 31 30 30 30 30 31 33 34 35 35 35 35 34 35 35 36 36 37 37 38 37 37 36 35 35 34 32 31 31 31 31 31 31 31 31 31 31 31 31 31 31 31 32 32 32 32
20 20 20 21 21 21 21 21 21 21 20 20 21 21 21 22 22 23 24 24 25 26 26 27 27 28 28 28 29 30 30 30 30 30 30 30 30 30 31 30 30 31 31 33 34 34 35 35 35 35 35 35 36 36 37 37 37 37 37 36 35 34 34 33 33 32 32 32 32 31 31 31 30 30 30 30 30 30 30 30 30 31 31 31 31
20 20 20 20 20 21 21 21 21 21 21 21 21 21 21 22 22 23 23 24 24 25 26 26 27 28 28 29 29 29 29 30 30 30 30 30 30 30 31 32 33 33 33 33 33 33 33 33 34 34 35 35 36 36 36 36 35 35 34 32 31 31 32 32 32 32 32 31 30 30 29 29 28 28 29 29 29 28 28 28 28 28 29 29 29
Wind_Direction
205 206 207 207 207 206 206 205 204 204 206 209 210 209 210 210 209 210 212 213 213 212 212 214 217 219 223 225 226 227 229 232 233 234 236 237 239 240 244 247 251 256 259 262 265 268 271 274 275 275 277 278 281 285 287 288 289 291 293 295 296 298 299 302 306 308 308 310 312 315 320 324 323 323 325 327 329 330 331 332 331 331 335 339 342
209 209 210 210 209 210 210 210 209 209 209 211 213 215 217 219 218 216 216 216 216 215 215 217 219 221 224 228 230 230 231 234 236 237 239 241 242 244 247 251 255 259 262 266 270 273 274 275 277 279 281 283 285 287 288 290 293 296 298 301 301 302 303 306 309 311 313 313 314 317 320 321 321 322 326 328 329 331 331 330 329 329 332 335 337
211 212 213 211 210 211 212 213 213 214 215 214 214 216 220 224 225 223 221 221 221 220 220 221 222 224 225 229 233 235 237 239 241 242 243 244 246 247 250 253 256 259 262 266 269 271 273 276 279 280 282 284 286 287 289 292 295 300 303 305 306 306 306 308 310 312 314 315 315 316 318 319 319 320 325 329 331 332 331 329 330 331 332 332 332
215 215 215 214 214 213 214 215 216 217 218 218 218 219 221 225 227 226 226 226 226 225 225 226 227 229 229 230 234 238 242 245 247 247 247 248 250 251 252 253 255 257 261 265 267 268 271 274 276 277 279 282 284 286 289 293 297 302 304 305 306 305 305 307 309 312 314 314 312 312 314 316 316 317 322 327 328 329 329 329 329 330 331 330 329
219 219 218 218 218 218 219 220 220 220 220 220 220 221 223 226 227 228 229 230 231 230 230 231 232 234 234 233 234 237 242 246 248 249 249 250 252 255 257 257 257 258 259 262 265 267 270 273 274 275 277 281 284 287 290 293 296 300 303 304 303 304 305 307 308 310 309 306 303 303 307 311 313 314 317 320 322 324 326 327 327 328 328 327 325
222 221 221 221 222 223 224 226 227 226 225 224 223 223 225 227 228 229 230 232 233 234 234 235 235 236 236 236 236 237 241 245 248 249 249 250 253 257 261 262 261 261 261 263 265 268 271 273 274 276 279 282 285 288 291 293 295 297 299 300 300 302 306 308 308 307 303 300 298 299 303 307 310 310 310 313 315 317 320 323 324 324 324 322 320
224 224 223 223 225 226 227 228 230 231 230 229 228 227 227 228 229 230 230 232 234 235 236 236 236 237 237 237 238 239 242 244 247 250 251 252 255 257 260 263 263 264 265 265 267 269 271 274 275 278 281 284 286 289 292 293 294 295 295 296 296 299 302 304 305 304 301 299 299 300 302 306 308 308 307 308 310 313 317 319 320 320 320 319 317
225 227 226 225 226 228 229 230 230 230 231 232 232 232 232 232 232 232 232 233 235 235 236 237 237 238 238 239 240 241 243 245 246 249 251 252 254 257 259 261 262 264 266 268 269 270 271 274 276 280 282 285 286 288 289 290 290 290 290 290 291 294 296 298 300 300 300 302 303 304 306 308 310 308 308 308 308 311 314 316 317 318 319 319 318
225 228 228 227 228 229 231 232 231 231 232 233 235 236 238 239 239 238 237 237 238 238 238 238 238 239 240 241 243 245 247 248 248 249 251 252 253 256 258 260 262 264 265 266 268 270 272 275 276 278 280 282 284 285 286 286 287 286 286 287 288 290 292 293 295 297 299 302 303 304 306 308 308 307 306 306 306 308 310 312 314 316 318 320 320
227 229 229 228 228 228 230 232 233 233 233 234 237 238 240 242 244 244 244 243 243 243 243 243 243 242 243 244 247 249 251 252 253 253 253 253 253 254 255 257 259 261 263 264 266 268 271 273 275 277 279 280 281 282 283 283 283 284 284 286 287 287 288 290 292 295 297 299 301 302 304 305 305 305 304 304 305 307 308 309 310 313 315 317 317
232 233 233 232 230 229 229 230 232 233 234 234 236 237 238 241 243 245 245 245 245 246 246 247 248 248 248 249 250 253 254 255 256 257 258 258 258 258 258 258 258 258 260 261 264 267 269 271 272 274 277 278 279 280 280 280 280 281 282 283 284 285 287 288 290 291 292 293 295 298 300 301 302 302 302 303 304 306 307 308 310 312 314 314 313
233 235 236 236 234 231 229 230 232 234 234 234 235 236 237 238 240 241 243 244 244 245 246 248 249 250 251 252 253 254 256 257 257 258 260 262 263 264 266 266 264 262 261 261 261 262 266 270 272 273 275 276 277 277 277 278 278 279 280 280 282 283 284 286 287 287 288 289 291 293 295 297 299 300 301 304 306 307 307 308 310 312 314 313 312
230 233 236 238 238 236 233 233 234 236 236 235 235 235 236 237 239 240 241 243 244 245 246 247 249 250 251 252 253 254 256 257 259 260 261 262 263 264 265 266 268 268 268 268 265 263 263 267 270 272 273 273 274 275 275 275 276 277 278 279 280 281 282 283 284 285 286 288 290 291 293 295 298 299 302 305 307 307 308 308 309 311 312 312 311
229 231 234 236 237 238 236 236 237 238 239 240 239 238 238 238 240 240 242 243 244 245 247 248 249 251 253 254 255 256 256 257 259 261 261 262 262 263 263 263 266 268 268 268 269 269 266 266 267 268 269 271 272 273 274 275 275 276 277 279 280 281 282 282 284 285 286 287 289 291 293 295 296 297 300 304 306 306 307 306 306 307 309 308 308
228 230 234 237 239 240 240 240 240 240 240 241 244 245 244 242 240 241 243 244 246 247 247 249 250 251 253 255 255 256 257 258 259 261 262 263 263 263 263 263 263 264 264 265 267 268 267 266 266 266 268 269 271 272 274 275 276 278 279 280 281 282 282 283 284 285 285 286 288 289 291 293 294 294 297 301 303 304 304 303 303 305 305 304 305
229 230 231 233 236 239 242 244 245 245 243 240 243 249 251 249 244 241 240 242 246 249 249 250 251 250 250 252 254 256 257 257 258 261 262 264 265 266 266 266 265 264 264 263 264 265 266 266 266 267 269 271 272 273 274 275 277 279 280 281 282 283 283 284 284 285 285 286 287 288 290 291 292 293 295 298 301 303 302 302 303 303 303 304 306
231 232 232 232 232 235 239 241 245 249 247 241 239 245 252 255 252 247 241 239 241 246 250 251 251 251 250 250 253 256 258 258 260 262 263 264 266 267 268 268 268 267 265 264 264 265 266 267 269 270 271 272 273 275 275 277 278 280 282 283 284 285 285 285 284 284 284 284 285 287 289 291 291 291 292 294 298 300 299 299 300 301 303 306 309
232 234 234 234 234 236 238 237 239 245 245 241 239 240 246 252 255 254 250 244 240 241 245 248 250 252 253 253 253 255 257 260 261 262 263 264 264 265 267 267 268 267 266 265 264 265 266 268 269 271 272 273 275 276 277 278 280 282 283 283 284 284 284 284 284 284 283 284 286 288 289 290 291 291 288 289 293 296 296 295 297 300 303 306 307
237 238 241 242 240 242 243 240 238 239 239 238 238 240 242 246 250 252 251 246 241 238 241 246 250 252 254 256 257 257 256 258 260 261 262 262 262 262 262 263 264 264 265 265 266 266 267 268 269 270 272 274 275 276 278 279 281 281 281 281 281 282 282 282 282 281 282 283 284 287 289 288 285 283 282 284 289 292 291 292 295 300 303 305 305
242 242 244 246 246 248 249 247 244 241 237 235 237 239 242 245 248 252 252 250 248 243 241 245 250 252 254 258 264 264 260 258 258 260 262 262 262 262 261 260 260 260 261 262 264 265 266 268 269 270 271 273 274 276 278 279 279 278 278 278 279 281 282 282 282 281 280 281 283 285 287 285 278 273 275 279 283 284 285 290 296 300 303 304 305
252 251 251 253 254 253 251 250 248 243 237 237 242 243 243 245 248 252 253 254 256 255 251 249 250 253 254 257 263 268 267 263 260 261 263 264 264 264 263 262 261 260 261 261 262 264 266 267 268 269 270 271 272 275 278 280 279 278 278 278 278 279 281 282 284 284 281 279 280 280 281 282 280 274 272 272 274 279 285 291 296 299 301 303 304
254 252 254 255 248 239 237 238 239 236 236 241 245 246 246 247 249 251 253 255 257 259 258 255 254 254 255 255 258 264 269 268 266 265 265 264 264 264 264 263 261 259 259 260 261 263 265 267 269 270 271 271 272 275 276 276 276 277 279 278 276 277 280 281 281 280 277 276 277 276 276 279 279 271 264 266 274 282 288 294 297 299 301 302 304
241 240 245 245 232 223 226 231 232 237 245 247 248 248 248 248 250 251 252 255 257 257 257 257 255 254 254 254 257 262 267 270 271 270 267 265 265 264 263 263 262 260 259 261 262 264 267 269 271 272 273 274 275 276 275 274 275 277 278 278 277 276 277 277 276 273 269 270 276 276 271 269 267 261 262 273 281 287 293 297 299 302 303 303 305
196 225 249 249 237 229 231 234 237 242 246 247 250 250 246 246 250 251 251 255 258 258 257 256 255 255 254 255 256 260 265 267 269 270 269 268 267 264 261 260 260 261 262 263 264 267 270 272 274 275 276 276 276 276 276 275 275 274 272 270 271 271 272 275 278 272 259 253 266 269 263 259 261 266 274 282 288 293 298 300 302 304 304 305 306
160 167 220 243 230 224 225 230 236 241 244 248 254 249 241 240 244 246 250 254 257 258 256 253 251 251 252 253 255 258 263 266 268 270 273 274 274 271 268 265 262 262 266 267 268 271 273 276 277 277 277 278 278 278 275 270 268 271 270 265 264 267 271 274 275 269 253 247 257 261 259 261 269 275 281 287 292 296 299 301 303 304 305 307 307
196 197 199 196 195 201 207 218 226 231 241 253 255 251 248 247 245 246 251 254 256 258 257 251 245 242 243 247 254 259 266 271 273 275 277 279 277 274 274 272 267 266 269 271 272 273 275 277 277 276 278 283 285 283 278 268 264 273 278 270 262 264 267 265 261 256 251 249 252 256 260 268 275 280 285 289 293 296 299 301 303 305 306 306 306
218 218 216 214 217 218 218 221 226 229 236 244 250 253 255 254 251 250 252 255 257 259 261 260 256 252 251 254 259 263 267 269 271 273 275 274 272 269 269 268 266 266 269 270 272 274 275 277 278 277 280 284 284 284 279 268 259 260 262 259 257 258 257 255 255 254 252 251 253 259 267 273 278 283 286 290 294 297 299 301 302 303 304 304 304
238 241 238 235 237 238 238 238 240 242 244 247 251 255 256 253 251 250 251 253 255 258 261 264 265 263 261 260 259 260 260 260 265 271 274 274 274 273 271 268 268 271 273 274 276 276 276 277 277 276 275 274 276 283 280 262 246 246 251 252 256 258 255 253 255 256 256 258 262 268 273 277 282 286 290 293 296 298 300 301 301 302 302 302 303
238 244 245 244 245 248 250 251 250 250 250 250 251 252 252 250 248 248 249 252 254 257 259 262 263 263 263 260 256 255 257 261 268 275 278 279 277 274 273 272 272 274 276 275 274 274 273 273 272 272 274 271 267 271 270 259 249 250 253 254 258 262 262 262 262 265 268 273 276 279 282 285 288 291 293 295 297 298 299 299 300 301 301 301 301
237 239 243 243 243 245 248 250 250 251 251 250 249 249 250 250 250 251 253 255 257 259 262 264 266 267 267 264 262 265 270 274 278 282 283 282 281 279 277 277 276 274 273 271 268 267 267 270 272 273 276 278 272 264 262 261 259 257 258 262 267 271 272 275 276 278 281 283 284 285 287 289 290 292 293 295 296 297 298 299 300 301 301 301 301
250 251 254 256 257 257 258 259 262 263 264 264 263 261 259 259 258 259 262 264 266 266 266 268 272 276 276 274 275 279 286 289 290 290 289 288 287 286 284 284 284 283 281 278 277 278 279 281 284 285 285 285 283 279 275 273 272 271 272 276 279 282 285 288 289 290 290 290 291 291 292 293 294 295 296 297 298 299 300 300 301 301 301 301 301
266 270 274 276 278 279 280 280 279 278 278 278 278 277 275 273 272 270 270 270 271 270 269 271 276 282 287 289 288 289 292 296 297 297 297 297 296 294 292 292 291 290 290 290 290 292 295 294 293 295 295 293 291 289 287 287 288 289 292 294 296 299 300 300 301 301 300 299 299 299 298 299 299 299 299 300 300 301 301 301 301 301 301 301 301
272 272 273 276 278 279 280 281 281 281 279 278 277 276 274 273 272 273 273 274 274 275 275 276 278 283 288 295 301 302 300 299 301 303 303 300 297 295 295 298 299 300 301 300 300 302 304 303 302 302 301 299 297 296 294 294 295 296 297 298 300 301 302 303 304 305 304 304 303 302 302 302 302 302 302 301 301 301 301 301 301 301 301 301 301
270 268 268 270 271 272 273 274 274 273 273 273 273 272 270 270 270 271 273 275 276 279 281 283 286 291 293 298 304 306 306 306 308 310 310 309 308 308 309 312 315 314 312 308 307 306 305 305 307 310 310 309 306 304 302 301 301 300 300 300 300 300 300 299 300 301 302 302 302 302 303 303 303 303 303 303 303 304 303 302 302 302 301 302 301
263 263 263 264 265 266 267 267 268 268 269 269 270 269 269 271 272 273 274 275 277 279 282 285 288 292 295 298 300 302 303 304 305 306 307 308 309 310 311 312 312 310 308 306 306 305 304 304 305 305 305 305 305 304 303 303 303 302 302 301 300 299 299 298 298 299 300 300 301 302 303 304 305 306 306 307 307 306 305 304 303 303 302 302 302
263 261 261 262 262 263 264 264 264 264 265 265 267 269 270 272 275 279 281 283 284 285 286 287 288 290 291 293 295 296 298 298 299 299 300 302 302 303 304 304 304 302 301 301 300 299 299 300 299 298 297 297 297 297 298 298 298 299 299 298 298 298 297 297 297 297 296 295 295 296 297 298 299 301 302 303 303 303 303 302 302 302 302 302 301
264 262 262 261 261 262 263 264 265 265 266 267 268 270 272 274 277 279 282 284 286 288 288 288 288 289 289 289 289 291 291 292 293 294 295 295 296 297 297 297 297 297 297 297 296 296 295 294 293 293 293 293 293 294 295 295 296 297 298 298 297 297 296 297 297 297 297 296 295 295 295 295 295 296 296 296 296 295 295 296 297 297 298 298 298
267 265 263 262 262 262 263 264 265 266 267 269 271 273 275 277 278 280 281 283 284 285 285 286 285 283 283 283 283 284 285 286 287 289 290 291 292 292 293 293 294 294 295 296 296 296 295 294 293 293 292 292 293 294 295 296 296 297 298 298 298 297 297 297 297 296 296 295 295 294 294 294 294 294 293 292 291 290 290 291 291 292 292 293 293
273 271 269 266 265 264 264 265 266 267 268 270 272 274 276 278 280 281 282 282 283 283 283 282 281 280 279 278 278 278 279 281 282 284 285 287 287 288 288 289 289 290 291 292 293 293 294 293 294 294 294 294 295 295 295 295 296 296 297 297 297 296 296 296 295 294 294 294 293 292 291 291 291 291 291 290 290 290 290 290 291 291 291 292 292
274 273 273 271 270 269 268 267 267 267 268 270 272 273 274 276 277 279 280 280 281 280 280 279 278 278 278 277 278 278 278 278 279 279 280 281 282 282 282 283 284 285 285 286 288 289 290 291 292 292 293 293 293 293 293 293 294 295 295 295 295 295 294 294 294 293 293 293 293 293 292 292 292 292 292 292 292 293 293 293 294 294 294 294 294
274 272 271 271 270 270 270 270 270 270 270 271 271 271 272 272 272 273 274 275 276 276 276 275 275 275 276 276 276 276 276 276 277 277 277 277 277 278 278 278 279 280 281 282 284 285 286 287 288 288 289 289 289 289 290 290 292 293 294 294 295 295 294 294 294 294 294 294 294 293 293 293 293 293 293 294 294 295 295 295 295 296 296 296 296
280 278 277 275 273 272 271 270 270 271 271 272 272 271 271 270 270 269 269 269 270 271 272 272 273 274 275 275 275 275 275 275 274 274 274 275 276 277 278 279 279 279 280 280 281 283 284 285 285 286 286 286 286 287 288 289 291 292 293 293 294 293 293 293 293 293 293 293 293 294 294 294 293 293 293 293 294 294 294 295 295 295 295 295 295
284 283 282 281 279 278 277 275 274 272 271 270 270 270 270 270 271 270 269 268 268 268 269 270 272 274 275 275 276 277 276 276 275 274 274 274 275 275 277 278 278 279 280 281 282 283 284 285 286 286 287 287 288 289 291 291 292 293 293 294 294 294 293 293 292 292 293 293 294 294 294 294 294 294 294 294 294 295 295 295 295 295 295 295 295
285 284 283 282 281 279 279 278 277 276 275 273 271 269 269 268 268 268 268 268 269 270 270 270 271 273 274 275 276 277 277 277 277 276 276 276 276 277 279 280 281 282 283 285 286 288 289 289 290 290 290 290 291 291 292 292 292 292 292 293 294 294 295 295 295 296 296 297 296 296 295 295 294 294 294 294 295 295 295 294 294 294 295 295 296
282 282 282 282 281 279 277 276 275 274 274 273 272 271 269 268 267 266 266 266 267 268 268 269 270 271 273 274 275 277 277 277 277 277 277 278 280 281 283 285 286 287 288 290 291 293 294 295 296 296 296 296 295 293 292 291 291 290 291 291 292 292 293 294 296 296 297 297 296 296 295 295 295 296 296 296 296 296 296 296 296 296 296 297 297
281 280 279 278 278 277 276 275 274 273 272 271 270 270 270 270 269 268 268 267 267 266 266 266 268 269 270 271 272 274 275 276 276 277 277 278 278 280 282 283 285 287 290 292 294 295 296 298 299 300 301 300 299 296 295 294 293 292 291 291 291 292 292 293 294 294 294 294 295 295 296 296 297 297 298 297 297 297 297 297 297 297 297 298 298
283 281 278 276 274 274 273 273 272 272 272 271 270 270 269 269 270 270 270 270 269 268 267 266 266 266 267 268 269 270 270 271 272 272 273 274 275 276 278 280 284 288 292 294 295 296 297 298 298 299 299 299 298 296 294 292 291 291 291 292 293 294 295 295 295 294 294 294 294 295 295 296 297 297 297 297 297 297 296 297 297 297 297 298 298
285 283 280 277 275 273 272 271 271 271 271 271 270 270 269 269 269 270 270 270 269 269 269 268 266 264 264 265 266 266 266 268 269 270 271 272 274 276 280 284 288 291 293 292 292 292 293 293 294 294 293 293 293 291 290 289 289 289 290 291 293 295 297 298 297 296 295 294 294 294 294 294 294 294 294 294 294 294 295 295 296 297 297 298 298
285 284 283 281 279 277 275 274 273 272 271 271 270 270 269 269 269 269 269 269 268 268 268 267 266 265 263 264 265 267 268 270 271 271 270 272 275 279 283 286 288 289 288 287 287 289 289 290 291 291 291 291 290 290 289 289 289 289 289 291 293 295 296 296 296 295 294 294 294 293 293 293 293 292 293 293 294 294 295 296 297 298 299 300 301
283 283 282 282 281 281 281 280 280 279 279 278 277 276 275 274 273 272 270 270 270 269 268 267 266 265 264 264 265 267 269 271 272 273 274 276 278 281 283 284 285 285 284 285 287 287 288 288 289 290 291 291 291 290 290 290 290 290 290 291 293 294 294 293 292 292 292 291 291 291 291 292 292 293 293 295 296 297 298 299 300 302 302 303 304
283 281 281 280 280 281 283 284 285 285 286 285 284 283 281 279 277 276 274 272 271 269 268 267 265 264 263 264 265 266 268 271 273 274 276 277 279 281 283 284 284 284 285 286 287 288 288 289 290 291 292 291 291 291 291 292 293 292 292 292 292 292 292 291 290 290 289 289 289 289 289 290 291 292 294 295 296 298 299 300 301 303 303 304 305
Height
3223 3224 3225 3226 3227 3228 3229 3230 3231 3232 3233 3234 3235 3236 3237 3238 3239 3239 3240 3241 3242 3243 3244 3245 3245 3246 3247 3248 3248 3249 3249 3250 3250 3251 3251 3252 3252 3253 3253 3253 3254 3254 3254 3254 3254 3254 3254 3254 3254 3254 3254 3254 3254 3254 3254 3254 3254 3253 3253 3253 3252 3252 3251 3251 3251 3250 3249 3249 3248 3247 3246 3245 3244 3242 3241 3240 3239 3238 3236 3235 3233 3232 3231 3230 3228
3222 3223 3224 3225 3227 3228 3229 3229 3230 3231 3232 3233 3234 3235 3236 3237 3238 3238 3239 3240 3241 3242 3242 3243 3244 3245 3246 3246 3247 3248 3248 3249 3249 3250 3250 3251 3251 3251 3252 3252 3252 3253 3253 3253 3253 3253 3253 3253 3253 3253 3253 3253 3253 3253 3253 3253 3252 3252 3252 3252 3251 3251 3250 3250 3249 3249 3248 3248 3247 3246 3245 3244 3243 3241 3240 3239 3238 3237 3235 3234 3233 3232 3230 3229 3227
3221 3222 3223 3224 3225 3226 3227 3228 3229 3230 3231 3232 3233 3234 3235 3236 3237 3237 3238 3239 3240 3240 3241 3242 3243 3243 3244 3245 3246 3246 3247 3248 3248 3249 3249 3250 3250 3250 3250 3251 3251 3251 3251 3251 3252 3252 3252 3252 3252 3252 3252 3252 3252 3252 3252 3251 3251 3251 3251 3250 3250 3249 3249 3248 3248 3247 3247 3247 3246 3245 3244 3243 3242 3240 3239 3238 3237 3236 3235 3233 3232 3231 3229 3228 3226
3219 3220 3222 3223 3224 3225 3226 3227 3228 3229 3230 3232 3232 3233 3234 3235 3235 3236 3237 3238 3239 3239 3240 3241 3241 3242 3243 3244 3244 3245 3246 3246 3247 3247 3248 3248 3248 3249 3249 3249 3250 3250 3250 3250 3250 3250 3251 3251 3251 3250 3250 3251 3251 3250 3250 3250 3250 3250 3249 3249 3249 3248 3248 3247 3246 3246 3245 3245 3245 3244 3243 3242 3241 3240 3239 3238 3236 3235 3234 3232 3231 3230 3228 3226 3225
3218 3219 3220 3222 3223 3224 3225 3226 3227 3228 3229 3230 3231 3232 3233 3234 3234 3235 3236 3237 3238 3238 3239 3240 3240 3241 3242 3242 3243 3244 3244 3245 3245 3246 3246 3247 3247 3247 3247 3248 3248 3248 3248 3249 3249 3249 3249 3250 3249 3249 3249 3249 3249 3249 3249 3248 3248 3248 3248 3247 3247 3247 3246 3246 3245 3244 3244 3243 3243 3242 3241 3241 3239 3238 3237 3237 3236 3235 3233 3232 3230 3229 3227 3226 3224
3216 3218 3219 3220 3222 3223 3224 3225 3226 3227 3228 3229 3230 3231 3232 3232 3233 3234 3235 3236 3237 3237 3238 3238 3239 3240 3240 3241 3241 3242 3242 3243 3243 3244 3244 3245 3245 3245 3246 3246 3247 3247 3247 3247 3247 3248 3248 3248 3248 3248 3248 3248 3248 3247 3247 3247 3246 3246 3246 3245 3245 3245 3244 3244 3244 3243 3242 3242 3241 3241 3240 3239 3238 3237 3236 3235 3234 3233 3233 3232 3230 3228 3226 3225 3223
3215 3216 3218 3219 3220 3222 3223 3224 3225 3226 3227 3228 3229 3229 3230 3231 3232 3233 3233 3234 3235 3236 3237 3237 3238 3238 3239 3239 3239 3240 3240 3241 3241 3242 3242 3243 3243 3244 3244 3244 3245 3245 3245 3246 3246 3246 3246 3246 3246 3246 3246 3246 3246 3246 3245 3245 3245 3244 3244 3244 3243 3243 3243 3242 3242 3241 3241 3240 3239 3239 3238 3237 3236 3235 3234 3233 3232 3231 3230 3229 3228 3227 3225 3224 3222
3214 3215 3216 3217 3219 3220 3221 3223 3223 3225 3225 3226 3227 3228 3229 3230 3230 3231 3232 3233 3233 3234 3235 3236 3236 3237 3237 3238 3238 3238 3239 3239 3239 3240 3241 3241 3241 3242 3242 3242 3243 3243 3244 3244 3244 3244 3244 3244 3244 3244 3244 3244 3244 3244 3243 3243 3243 3243 3242 3242 3241 3241 3241 3240 3240 3239 3239 3238 3238 3237 3236 3236 3235 3234 3233 3232 3231 3229 3228 3227 3226 3225 3223 3222 3221
3212 3214 3215 3216 3218 3219 3220 3221 3222 3223 3224 3225 3226 3226 3227 3228 3229 3230 3230 3231 3232 3232 3233 3234 3235 3235 3236 3236 3237 3237 3238 3238 3238 3238 3239 3239 3239 3240 3240 3240 3241 3241 3241 3242 3242 3242 3242 3242 3242 3242 3242 3242 3242 3242 3242 3241 3241 3241 3240 3239 3239 3239 3239 3238 3238 3237 3237 3237 3236 3235 3235 3234 3233 3232 3231 3230 3229 3228 3226 3225 3223 3222 3221 3220 3218
3210 3212 3213 3215 3216 3217 3218 3219 3220 3221 3222 3223 3224 3225 3226 3226 3227 3228 3229 3230 3230 3231 3232 3232 3233 3234 3235 3235 3235 3236 3236 3237 3237 3237 3237 3238 3238 3238 3238 3238 3238 3238 3239 3239 3240 3240 3240 3239 3239 3239 3239 3240 3240 3240 3239 3239 3239 3239 3238 3237 3237 3237 3237 3236 3236 3235 3235 3235 3234 3234 3233 3232 3231 3230 3229 3228 3227 3225 3224 3223 3221 3220 3219 3217 3216
3208 3210 3211 3213 3214 3215 3216 3217 3218 3219 3220 3221 3222 3223 3223 3224 3225 3226 3227 3228 3228 3229 3230 3231 3231 3232 3233 3233 3234 3234 3235 3235 3236 3236 3236 3236 3236 3236 3236 3235 3235 3235 3236 3236 3237 3237 3237 3237 3237 3237 3237 3237 3237 3237 3237 3237 3236 3236 3236 3236 3235 3235 3235 3234 3234 3233 3233 3232 3232 3231 3231 3230 3229 3228 3227 3226 3225 3223 3222 3220 3219 3218 3216 3215 3213
3206 3207 3209 3210 3211 3212 3213 3214 3215 3216 3217 3218 3219 3220 3221 3221 3222 3223 3224 3225 3226 3227 3227 3228 3229 3230 3230 3231 3232 3232 3233 3233 3234 3234 3234 3235 3235 3235 3235 3234 3234 3233 3233 3234 3233 3233 3233 3234 3234 3234 3235 3235 3235 3235 3234 3234 3234 3234 3234 3233 3233 3233 3232 3232 3231 3231 3230 3230 3229 3229 3228 3227 3227 3225 3224 3223 3222 3221 3219 3218 3217 3216 3214 3213 3211
3203 3205 3206 3208 3209 3210 3211 3212 3213 3214 3214 3215 3216 3217 3218 3219 3220 3221 3222 3222 3223 3224 3225 3226 3226 3227 3228 3228 3229 3229 3230 3230 3231 3231 3232 3232 3232 3232 3232 3233 3232 3232 3232 3232 3231 3229 3229 3230 3231 3232 3232 3232 3232 3232 3232 3231 3231 3231 3231 3230 3230 3230 3229 3229 3229 3228 3227 3227 3226 3226 3225 3225 3224 3223 3221 3221 3219 3218 3217 3216 3215 3213 3212 3210 3208
3201 3202 3204 3205 3206 3207 3208 3209 3210 3210 3212 3213 3213 3214 3215 3216 3217 3218 3219 3220 3221 3222 3222 3223 3224 3224 3225 3226 3226 3226 3226 3227 3228 3229 3229 3229 3229 3229 3230 3230 3230 3230 3230 3229 3228 3227 3226 3227 3228 3229 3229 3229 3229 3229 3229 3229 3228 3228 3228 3227 3227 3227 3226 3226 3226 3225 3225 3224 3223 3222 3222 3221 3221 3220 3219 3218 3217 3216 3214 3213 3212 3211 3210 3208 3206
3198 3199 3201 3202 3203 3204 3205 3206 3207 3207 3209 3210 3211 3212 3213 3214 3214 3215 3216 3217 3218 3219 3220 3220 3221 3221 3222 3223 3223 3223 3224 3225 3226 3226 3226 3227 3226 3226 3227 3227 3227 3227 3227 3226 3226 3225 3225 3225 3225 3226 3226 3226 3226 3226 3226 3226 3225 3225 3225 3224 3224 3223 3223 3223 3223 3222 3222 3221 3220 3219 3219 3218 3218 3217 3216 3215 3214 3213 3212 3210 3209 3208 3207 3206 3204
3194 3195 3196 3198 3200 3202 3203 3203 3204 3205 3206 3207 3208 3210 3211 3211 3212 3212 3212 3214 3215 3216 3217 3218 3218 3218 3219 3219 3220 3220 3221 3222 3222 3223 3223 3224 3224 3224 3224 3224 3224 3224 3224 3224 3223 3223 3223 3222 3222 3223 3223 3223 3223 3223 3223 3223 3222 3222 3222 3221 3220 3219 3219 3219 3219 3219 3218 3218 3217 3216 3215 3215 3214 3214 3213 3212 3211 3210 3208 3207 3206 3205 3205 3203 3202
3190 3190 3192 3194 3196 3197 3198 3200 3201 3202 3204 3204 3204 3206 3207 3209 3209 3210 3210 3210 3211 3213 3214 3214 3215 3215 3216 3216 3216 3217 3218 3218 3219 3220 3220 3221 3221 3221 3220 3220 3220 3220 3220 3220 3220 3220 3220 3220 3220 3220 3219 3219 3220 3219 3219 3219 3219 3219 3218 3217 3217 3215 3214 3215 3215 3214 3214 3214 3213 3212 3212 3211 3211 3210 3210 3209 3208 3207 3205 3204 3204 3203 3202 3201 3200
3185 3185 3187 3189 3191 3192 3193 3195 3197 3199 3200 3201 3201 3201 3203 3205 3207 3208 3208 3207 3207 3208 3209 3211 3211 3212 3213 3213 3213 3213 3214 3215 3216 3216 3217 3217 3218 3217 3217 3217 3217 3217 3217 3217 3217 3217 3216 3217 3217 3216 3216 3216 3216 3216 3216 3216 3215 3215 3215 3214 3213 3211 3210 3210 3210 3210 3210 3210 3209 3209 3208 3207 3207 3207 3206 3206 3205 3204 3203 3202 3201 3201 3200 3199 3198
3181 3182 3182 3184 3186 3189 3190 3190 3192 3195 3196 3197 3198 3199 3200 3201 3202 3204 3204 3205 3205 3204 3204 3207 3208 3209 3210 3210 3210 3210 3211 3211 3212 3213 3213 3214 3214 3213 3214 3213 3214 3214 3214 3213 3213 3213 3213 3213 3213 3213 3212 3212 3212 3212 3212 3212 3211 3211 3210 3209 3208 3207 3205 3205 3205 3206 3206 3205 3205 3205 3204 3203 3202 3202 3202 3202 3202 3201 3200 3200 3199 3198 3197 3196 3195
3178 3179 3179 3180 3183 3186 3187 3186 3188 3191 3192 3193 3194 3196 3196 3197 3199 3200 3201 3203 3204 3202 3202 3203 3205 3205 3206 3207 3208 3207 3207 3208 3208 3208 3209 3209 3210 3209 3209 3209 3209 3210 3210 3210 3209 3209 3209 3209 3209 3209 3208 3208 3208 3208 3207 3207 3207 3206 3205 3204 3203 3202 3201 3200 3200 3200 3200 3200 3200 3200 3199 3197 3197 3197 3198 3198 3198 3198 3197 3197 3196 3195 3194 3193 3192
3174 3176 3177 3178 3179 3182 3183 3184 3185 3187 3189 3190 3191 3193 3193 3194 3196 3197 3198 3199 3200 3200 3200 3200 3201 3201 3203 3203 3204 3204 3204 3204 3204 3205 3205 3205 3205 3205 3205 3205 3205 3205 3205 3205 3205 3205 3205 3205 3205 3205 3205 3204 3204 3203 3203 3203 3202 3200 3199 3199 3198 3197 3197 3196 3195 3194 3195 3195 3195 3195 3195 3194 3192 3193 3194 3194 3194 3194 3194 3193 3193 3192 3191 3190 3188
3171 3173 3174 3175 3176 3178 3180 3182 3183 3185 3187 3188 3189 3189 3190 3191 3192 3193 3195 3195 3196 3196 3196 3196 3197 3198 3198 3199 3199 3200 3200 3200 3200 3201 3201 3200 3200 3200 3200 3200 3200 3200 3200 3200 3201 3201 3200 3200 3200 3200 3200 3199 3199 3198 3198 3197 3197 3195 3194 3193 3194 3194 3192 3192 3191 3190 3189 3190 3190 3190 3191 3190 3189 3189 3190 3190 3190 3191 3190 3190 3189 3188 3187 3186 3185
3170 3171 3172 3172 3173 3175 3178 3180 3181 3183 3185 3186 3186 3186 3187 3188 3189 3190 3191 3192 3192 3192 3192 3193 3193 3194 3194 3194 3195 3196 3196 3196 3195 3195 3195 3195 3195 3195 3195 3194 3193 3194 3195 3195 3195 3196 3196 3195 3195 3195 3194 3194 3193 3192 3192 3191 3191 3190 3188 3188 3189 3189 3188 3187 3186 3184 3184 3186 3186 3187 3187 3187 3186 3187 3187 3187 3187 3187 3187 3186 3185 3184 3183 3182 3181
3169 3170 3171 3171 3171 3173 3175 3177 3179 3181 3182 3183 3184 3185 3185 3186 3187 3188 3188 3188 3189 3189 3189 3190 3189 3189 3190 3191 3191 3192 3193 3192 3191 3190 3189 3189 3188 3188 3188 3187 3188 3190 3191 3191 3191 3191 3191 3191 3190 3189 3189 3188 3187 3186 3185 3185 3185 3184 3182 3181 3182 3183 3183 3182 3181 3181 3181 3182 3183 3184 3184 3184 3184 3184 3184 3184 3184 3184 3183 3182 3182 3181 3180 3178 3177
3169 3169 3169 3169 3170 3171 3173 3176 3177 3179 3181 3182 3183 3184 3184 3185 3185 3185 3185 3185 3185 3185 3185 3186 3186 3186 3187 3188 3188 3189 3189 3187 3186 3186 3185 3184 3183 3183 3182 3182 3184 3186 3187 3186 3186 3186 3186 3186 3185 3184 3183 3183 3181 3180 3178 3178 3179 3178 3177 3176 3177 3178 3178 3178 3178 3178 3178 3178 3180 3181 3181 3181 3181 3181 3181 3181 3181 3180 3179 3178 3178 3177 3176 3175 3174
3167 3167 3167 3168 3169 3170 3172 3173 3175 3177 3179 3180 3181 3182 3182 3182 3182 3182 3181 3181 3181 3181 3181 3181 3181 3182 3183 3184 3184 3185 3184 3183 3181 3182 3181 3180 3180 3179 3179 3180 3181 3182 3182 3182 3182 3181 3181 3181 3180 3180 3179 3178 3176 3175 3174 3174 3174 3175 3174 3175 3175 3175 3174 3175 3175 3176 3175 3175 3176 3177 3177 3178 3178 3178 3178 3178 3177 3177 3176 3175 3174 3173 3172 3171 3170
3166 3166 3167 3167 3168 3168 3169 3171 3172 3174 3175 3176 3177 3178 3178 3179 3179 3178 3178 3178 3178 3178 3178 3177 3177 3178 3179 3180 3180 3180 3180 3179 3178 3178 3178 3178 3177 3177 3177 3177 3177 3177 3178 3178 3177 3177 3177 3177 3176 3176 3175 3174 3174 3173 3172 3171 3171 3172 3173 3173 3173 3173 3173 3172 3173 3173 3173 3173 3174 3174 3174 3174 3175 3175 3175 3174 3173 3173 3172 3171 3171 3170 3169 3168 3167
3166 3166 3167 3168 3168 3168 3168 3169 3170 3172 3172 3173 3173 3174 3174 3175 3175 3175 3175 3175 3175 3175 3176 3175 3175 3175 3175 3176 3176 3176 3176 3176 3175 3175 3175 3175 3175 3175 3174 3175 3175 3175 3175 3174 3174 3174 3174 3174 3174 3173 3173 3172 3172 3171 3170 3170 3169 3170 3171 3171 3171 3171 3171 3171 3171 3171 3171 3171 3171 3171 3172 3172 3172 3172 3172 3171 3170 3169 3169 3168 3167 3167 3166 3165 3164
3166 3166 3166 3167 3167 3167 3168 3169 3169 3170 3170 3171 3171 3172 3172 3172 3172 3172 3172 3173 3173 3173 3173 3173 3173 3173 3173 3173 3173 3172 3172 3172 3173 3172 3173 3173 3173 3173 3173 3173 3173 3173 3173 3173 3173 3173 3172 3172 3172 3171 3171 3170 3169 3169 3169 3169 3168 3169 3169 3169 3169 3169 3170 3169 3170 3170 3170 3169 3169 3169 3169 3169 3169 3169 3168 3167 3167 3166 3165 3165 3164 3163 3162 3162 3161
3166 3166 3166 3166 3167 3167 3168 3168 3168 3169 3169 3170 3170 3170 3170 3170 3170 3170 3170 3171 3171 3171 3171 3171 3171 3171 3171 3171 3171 3170 3170 3171 3171 3171 3171 3171 3171 3171 3171 3171 3171 3171 3172 3171 3171 3171 3171 3170 3170 3169 3169 3168 3168 3167 3167 3167 3167 3167 3167 3167 3168 3168 3168 3168 3168 3168 3168 3168 3167 3167 3167 3166 3166 3165 3165 3164 3163 3163 3162 3161 3160 3159 3159 3158 3157
3166 3166 3166 3166 3167 3167 3167 3168 3168 3168 3168 3168 3168 3168 3169 3168 3169 3169 3168 3168 3168 3168 3169 3169 3169 3169 3169 3169 3169 3169 3169 3169 3169 3169 3169 3168 3168 3168 3168 3168 3168 3169 3169 3169 3169 3168 3168 3168 3167 3167 3167 3167 3166 3166 3165 3165 3165 3165 3166 3166 3166 3166 3166 3166 3166 3166 3166 3166 3165 3164 3164 3163 3163 3162 3161 3160 3160 3159 3158 3157 3156 3155 3155 3154 3153
3165 3165 3166 3166 3166 3166 3167 3167 3167 3167 3168 3168 3167 3167 3167 3167 3167 3167 3167 3167 3167 3167 3167 3167 3167 3167 3167 3167 3167 3167 3167 3167 3167 3167 3167 3166 3166 3166 3166 3166 3166 3166 3166 3166 3166 3165 3165 3165 3165 3165 3165 3165 3164 3164 3164 3164 3164 3164 3164 3164 3164 3164 3164 3164 3164 3164 3163 3163 3162 3162 3161 3160 3159 3159 3158 3157 3156 3155 3154 3153 3153 3152 3151 3150 3149
3165 3165 3165 3165 3166 3166 3166 3166 3167 3167 3167 3167 3167 3167 3167 3166 3166 3166 3166 3166 3165 3165 3165 3165 3165 3165 3165 3165 3165 3166 3166 3166 3166 3165 3165 3165 3164 3164 3164 3164 3164 3164 3164 3164 3164 3163 3163 3163 3162 3162 3162 3162 3162 3162 3162 3162 3162 3162 3162 3162 3162 3162 3161 3161 3161 3161 3160 3160 3159 3159 3158 3157 3156 3155 3154 3153 3152 3152 3151 3150 3149 3148 3147 3146 3145
3164 3164 3165 3165 3165 3165 3166 3166 3166 3166 3166 3166 3166 3166 3166 3166 3166 3166 3165 3165 3165 3165 3164 3164 3164 3164 3164 3164 3164 3164 3164 3164 3164 3164 3163 3163 3163 3163 3162 3162 3162 3162 3162 3162 3162 3162 3161 3161 3160 3160 3160 3160 3160 3160 3160 3160 3160 3160 3159 3159 3159 3159 3159 3158 3158 3158 3157 3157 3156 3155 3155 3154 3153 3152 3151 3150 3149 3148 3147 3146 3145 3144 3143 3142 3141
3163 3164 3164 3164 3164 3164 3165 3165 3165 3165 3165 3165 3165 3165 3165 3165 3165 3165 3165 3165 3164 3164 3164 3164 3164 3163 3163 3163 3163 3163 3163 3163 3162 3162 3161 3161 3161 3161 3161 3161 3161 3161 3160 3160 3160 3160 3159 3159 3159 3158 3158 3158 3158 3158 3158 3157 3157 3157 3157 3157 3156 3156 3156 3155 3155 3154 3154 3153 3153 3152 3151 3151 3150 3149 3148 3147 3146 3145 3143 3142 3141 3140 3139 3138 3136
3162 3162 3162 3162 3163 3163 3163 3163 3163 3163 3163 3163 3163 3163 3163 3164 3164 3163 3163 3163 3163 3163 3163 3163 3163 3163 3162 3162 3162 3162 3161 3161 3160 3160 3159 3159 3159 3159 3159 3159 3159 3158 3158 3158 3157 3157 3157 3157 3156 3156 3156 3155 3155 3155 3155 3155 3155 3154 3154 3154 3153 3153 3152 3152 3151 3150 3150 3149 3149 3148 3147 3147 3146 3145 3144 3143 3142 3141 3139 3138 3137 3136 3135 3134 3132
3160 3160 3160 3161 3161 3161 3161 3161 3161 3161 3161 3161 3161 3161 3161 3162 3162 3162 3161 3161 3161 3161 3161 3161 3161 3161 3161 3160 3160 3160 3159 3159 3158 3157 3157 3157 3157 3157 3157 3156 3156 3156 3156 3155 3155 3154 3154 3154 3154 3153 3153 3153 3152 3152 3152 3152 3151 3151 3150 3150 3149 3149 3148 3148 3147 3146 3146 3145 3144 3143 3143 3142 3141 3140 3140 3139 3138 3136 3135 3134 3133 3131 3130 3129 3128
3158 3158 3158 3158 3158 3158 3158 3158 3158 3158 3158 3158 3159 3159 3159 3159 3159 3159 3159 3159 3159 3159 3158 3158 3158 3158 3158 3158 3158 3157 3157 3156 3156 3155 3155 3155 3155 3154 3154 3154 3154 3153 3153 3152 3152 3152 3151 3151 3150 3150 3150 3150 3149 3149 3148 3148 3147 3147 3146 3146 3145 3144 3144 3143 3142 3142 3141 3140 3139 3139 3138 3137 3136 3135 3134 3133 3132 3131 3130 3129 3127 3126 3125 3124 3122
3154 3154 3155 3155 3155 3155 3155 3155 3155 3155 3156 3156 3156 3156 3156 3156 3156 3156 3156 3156 3156 3156 3155 3155 3155 3155 3155 3155 3155 3155 3154 3153 3153 3152 3152 3152 3152 3152 3152 3151 3151 3150 3150 3150 3149 3149 3148 3148 3147 3147 3147 3146 3146 3145 3145 3144 3143 3143 3142 3141 3141 3140 3139 3138 3138 3137 3136 3135 3135 3134 3133 3132 3131 3130 3129 3127 3126 3125 3124 3123 3122 3120 3119 3118 3117
3151 3151 3151 3151 3151 3152 3152 3152 3152 3152 3152 3152 3152 3152 3152 3152 3152 3152 3152 3152 3152 3152 3152 3152 3152 3152 3152 3152 3152 3152 3151 3151 3150 3150 3149 3149 3149 3149 3148 3148 3148 3147 3147 3147 3146 3146 3145 3145 3144 3144 3143 3142 3142 3141 3140 3140 3139 3138 3137 3137 3136 3135 3134 3133 3133 3132 3131 3130 3129 3128 3127 3126 3125 3124 3123 3121 3120 3119 3118 3117 3116 3114 3113 3112 3111
3148 3148 3148 3148 3148 3148 3148 3148 3148 3148 3148 3149 3149 3149 3149 3149 3149 3149 3149 3149 3149 3149 3148 3148 3148 3148 3148 3148 3148 3148 3148 3147 3146 3146 3145 3145 3145 3145 3145 3145 3144 3144 3143 3143 3143 3142 3142 3141 3141 3140 3139 3138 3138 3137 3136 3135 3134 3134 3133 3132 3131 3130 3129 3128 3127 3126 3125 3124 3123 3122 3121 3120 3119 3118 3117 3116 3115 3113 3112 3111 3110 3109 3108 3107 3106
3144 3144 3144 3144 3144 3145 3145 3144 3145 3145 3145 3145 3145 3145 3145 3145 3145 3145 3145 3145 3145 3145 3144 3144 3144 3144 3144 3144 3144 3144 3144 3143 3142 3142 3141 3141 3141 3141 3140 3140 3140 3140 3139 3139 3138 3138 3137 3137 3136 3135 3135 3134 3133 3132 3131 3131 3130 3129 3128 3127 3126 3125 3124 3123 3122 3121 3120 3119 3118 3117 3116 3115 3114 3113 3112 3111 3109 3108 3107 3106 3105 3104 3103 3102 3100
3140 3140 3140 3140 3140 3140 3140 3141 3141 3141 3141 3141 3141 3141 3141 3141 3141 3141 3141 3141 3141 3141 3141 3140 3140 3140 3140 3139 3139 3139 3139 3139 3138 3138 3137 3137 3136 3136 3136 3136 3136 3135 3135 3134 3134 3133 3133 3132 3131 3131 3130 3129 3128 3127 3127 3126 3125 3124 3123 3122 3121 3120 3120 3119 3118 3116 3115 3114 3113 3112 3111 3110 3109 3108 3107 3106 3104 3103 3102 3101 3100 3099 3098 3096 3095
3137 3137 3137 3137 3137 3137 3137 3137 3137 3137 3137 3137 3137 3137 3138 3138 3138 3138 3138 3137 3137 3137 3137 3137 3136 3136 3136 3136 3135 3135 3135 3134 3134 3133 3133 3132 3132 3131 3131 3131 3131 3130 3130 3130 3129 3129 3128 3127 3126 3126 3125 3124 3123 3123 3122 3121 3120 3119 3118 3117 3117 3116 3115 3114 3112 3111 3110 3109 3108 3107 3106 3105 3104 3103 3102 3101 3099 3098 3097 3096 3095 3093 3092 3091 3089
3134 3134 3133 3133 3133 3133 3133 3133 3133 3133 3133 3133 3133 3133 3133 3133 3133 3133 3134 3134 3134 3133 3133 3133 3133 3133 3132 3132 3132 3131 3131 3130 3130 3129 3129 3128 3128 3127 3127 3126 3126 3125 3125 3125 3124 3124 3123 3122 3121 3120 3119 3119 3118 3117 3117 3116 3115 3115 3113 3112 3111 3110 3109 3108 3107 3106 3105 3104 3103 3102 3101 3100 3099 3098 3096 3095 3094 3093 3092 3090 3089 3088 3086 3085 3084
3130 3130 3130 3130 3130 3130 3129 3129 3129 3129 3129 3129 3129 3129 3129 3129 3129 3129 3129 3129 3129 3129 3129 3129 3129 3129 3129 3128 3128 3128 3127 3126 3126 3126 3125 3125 3124 3123 3123 3122 3122 3121 3121 3120 3120 3119 3118 3118 3117 3116 3115 3114 3113 3112 3112 3111 3110 3109 3108 3107 3106 3105 3104 3103 3102 3101 3100 3099 3097 3096 3095 3094 3093 3092 3090 3089 3088 3087 3086 3085 3083 3082 3081 3079 3078
3126 3126 3126 3126 3126 3126 3126 3126 3125 3125 3125 3125 3125 3125 3125 3125 3125 3125 3125 3125 3125 3125 3125 3125 3125 3125 3125 3125 3124 3124 3123 3123 3122 3122 3121 3121 3120 3120 3119 3119 3118 3118 3117 3116 3116 3115 3114 3113 3112 3112 3111 3110 3109 3108 3107 3106 3105 3104 3103 3102 3101 3100 3099 3098 3097 3096 3095 3093 3092 3091 3090 3089 3088 3086 3085 3084 3083 3082 3081 3079 3078 3077 3075 3074 3073
3120 3121 3121 3121 3122 3122 3122 3122 3122 3122 3122 3122 3121 3121 3121 3121 3121 3121 3121 3120 3120 3120 3120 3120 3120 3121 3121 3121 3120 3120 3119 3119 3118 3118 3118 3117 3117 3116 3116 3115 3115 3114 3113 3113 3112 3111 3110 3109 3108 3107 3106 3105 3104 3103 3102 3101 3100 3099 3098 3097 3096 3095 3094 3093 3092 3091 3090 3089 3087 3086 3085 3084 3083 3082 3081 3079 3078 3077 3076 3075 3073 3072 3070 3069 3068
3116 3116 3116 3116 3117 3117 3117 3118 3118 3118 3118 3118 3118 3118 3117 3117 3117 3117 3117 3117 3116 3116 3116 3116 3116 3116 3117 3117 3116 3116 3115 3115 3115 3114 3114 3114 3113 3112 3112 3111 3111 3110 3109 3109 3108 3107 3106 3105 3104 3103 3102 3101 3100 3098 3097 3096 3095 3094 3093 3092 3091 3090 3089 3088 3087 3086 3085 3084 3083 3082 3080 3079 3078 3077 3076 3075 3073 3072 3071 3069 3068 3067 3065 3064 3062
3112 3112 3112 3112 3112 3112 3113 3113 3113 3113 3113 3114 3114 3114 3114 3113 3113 3113 3113 3113 3113 3112 3112 3112 3112 3112 3112 3113 3112 3112 3112 3111 3111 3110 3110 3109 3109 3108 3108 3107 3106 3106 3105 3104 3103 3102 3101 3100 3099 3098 3097 3096 3094 3093 3092 3091 3090 3089 3088 3087 3086 3085 3084 3083 3082 3081 3080 3079 3078 3077 3076 3075 3073 3072 3071 3070 3068 3067 3066 3064 3063 3062 3060 3059 3058
3109 3109 3109 3109 3109 3109 3109 3109 3109 3109 3109 3109 3109 3109 3109 3109 3109 3109 3109 3108 3108 3108 3108 3108 3108 3108 3108 3108 3108 3108 3108 3107 3107 3106 3106 3105 3105 3104 3103 3102 3102 3101 3100 3099 3098 3097 3096 3095 3094 3093 3092 3091 3089 3088 3087 3086 3085 3083 3082 3082 3081 3080 3079 3078 3077 3076 3076 3074 3073 3072 3071 3070 3069 3068 3067 3065 3064 3063 3062 3060 3059 3058 3056 3055 3054